Regional Weather Roundup
Issued by NWS Cleveland, OH

Home | Current Version | Previous Version | Text Only | Print | Product List | Glossary Off
Versions: 1 2 3 4 5 6 7 8 9 10 11 12 13 14 15 16 17 18 19 20 21 22 23 24 25 26 27 28 29 30 31 32 33 34 35 36 37 38 39 40 41 42 43 44 45 46 47 48 49 50

000
ASUS41 KCLE 230600
RWRCLE
OHIO REGIONAL WEATHER ROUNDUP
NATIONAL WEATHER SERVICE WILMINGTON, OH
200 AM EDT SAT AUG 23 2014

NOTE: "FAIR" INDICATES FEW OR NO CLOUDS BELOW 12,000 FEET WITH NO
SIGNIFICANT WEATHER AND/OR OBSTRUCTIONS TO VISIBILITY.

OHZ001>008-015>018-024>027-034-035-043-044-230700-
   NORTHWEST OHIO

CITY           SKY/WX    TMP DP  RH WIND       PRES   REMARKS
DEFIANCE       FAIR      73  70  90 E5        30.00F FOG
FINDLAY        FAIR      73  70  90 NE5       29.99F
TOLEDO EXPRESS MOCLDY    71  70  96 E3        30.00F FOG
TOLEDO METCALF MOCLDY    74  71  91 NE3       30.02F FOG
LIMA           FAIR      74  71  91 CALM      30.00F FOG
$$

OHZ009>014-019>023-028>033-038-089-230700-
   NORTHEAST OHIO

CITY           SKY/WX    TMP DP  RH WIND       PRES   REMARKS
CLE-HOPKINS    CLOUDY    71  69  93 W3        30.01F FOG
CLE-LAKEFRONT  CLOUDY    73  67  81 NE3       29.98F
CUY CO. ARPT   NOT AVBL
LORAIN-ELYRIA  CLOUDY    72  68  87 NW3       30.01F FOG
ASHTABULA      FOG       63  62  97 CALM      30.01F VSB 3/4
AKRON-CANTON   FAIR      69  66  90 N7        30.00F FOG
WOOSTER        NOT AVBL
MANSFIELD      FOG       67  67 100 N3        30.02F VSB 1/2
YOUNGSTOWN     FAIR      68  65  90 CALM      30.00F
$$

OHZ042-051>053-060>062-070>072-077>081-230700-
  SOUTHWEST OHIO

CITY           SKY/WX    TMP DP  RH WIND       PRES   REMARKS
CINC-COVINGTON NOT AVBL
CINC-LUNKEN    FAIR      72  72 100 CALM      29.99F FOG
HAMILTON       MOCLDY    73  73 100 CALM      30.00F
DAYTON         NOT AVBL
WRIGHT-PAT AFB CLEAR     71  71  98 CALM      30.00F
DAYTON GENERAL FAIR      74  72  93 CALM      30.00S
WILMINGTON     FAIR      70  69  97 CALM      30.01S FOG
$$

OHZ036-037-039>041-045>050-054>059-063>069-073>076-082>088-230700-
  CENTRAL AND SOUTHEAST OHIO

CITY           SKY/WX    TMP DP  RH WIND       PRES   REMARKS
COLUMBUS       FAIR      75  71  87 CALM      29.97F FOG
OSU AIRPORT    FAIR      72  71  97 N5        29.98F FOG
BOLTON FIELD   NOT AVBL
RICKENBACK AFB NOT AVBL
NEWARK         FAIR      69  68  96 CALM      29.98S FOG
MARION         FAIR      69  68  96 N3        30.00F FOG
LANCASTER      MOCLDY    68  67  96 CALM      29.98F FOG
ZANESVILLE     FAIR      70  69  97 CALM      29.98S FOG
NEW PHILLY     FOG       68  67  96 CALM      29.99F VSB 1/2
$$



USA.gov is the U.S. government's official web portal to all federal, state and local government web resources and services.